ANA786 RJTT-RJCC

Flight info

Callsign ANA786
Flight time N/A
Altitude 37000
Route BRUCE AGRIS Y11 SAMBO Y119 OHMAR Y13 SIRAO Y139 NAVER
Aircraft B38M/M-SDE1FGHILORVWXY/HB1

Departure

Time N/A
Airport Tokyo Haneda International Airport (RJTT)

Arrival

Time 2026-04-30 18:33
Airport New Chitose Airport (RJCC)
Time Latitude Longitude Altitude Speed Heading
2026-04-30 17:39 37.57377 140.14281 37081 ft 491 kts 358°
2026-04-30 17:42 37.90909 140.23076 37075 ft 494 kts 358°
2026-04-30 17:43 38.07778 140.27531 37066 ft 496 kts 358°
2026-04-30 17:44 38.28086 140.32922 37074 ft 498 kts 358°
2026-04-30 17:47 38.58598 140.42196 37026 ft 507 kts
2026-04-30 17:48 38.72488 140.46654 37087 ft 520 kts
2026-04-30 17:48 38.82996 140.50038 37068 ft 519 kts
2026-04-30 17:50 39.11024 140.59143 37081 ft 520 kts
2026-04-30 17:52 39.32031 140.66051 37079 ft 520 kts
2026-04-30 17:54 39.62301 140.76080 37101 ft 518 kts
2026-04-30 17:56 39.90172 140.85396 37086 ft 516 kts
2026-04-30 17:58 40.10967 140.92397 37082 ft 513 kts
2026-04-30 17:59 40.24604 140.95189 37083 ft 484 kts 346°
2026-04-30 18:00 40.38017 140.95669 37089 ft 482 kts 346°
2026-04-30 18:01 40.54769 140.96221 37069 ft 481 kts 346°
2026-04-30 18:02 40.74803 140.96886 37065 ft 480 kts 346°
2026-04-30 18:04 40.94819 140.97552 37065 ft 479 kts 346°
2026-04-30 18:06 41.21389 140.98445 37073 ft 476 kts 346°
2026-04-30 18:07 41.34644 141.00663 34661 ft 502 kts 10°
2026-04-30 18:08 41.44300 141.05339 33263 ft 487 kts 11°
2026-04-30 18:09 41.56756 141.11490 31364 ft 469 kts 12°
2026-04-30 18:10 41.68794 141.17468 29438 ft 454 kts 14°
2026-04-30 18:11 41.80349 141.23309 27778 ft 433 kts 14°
2026-04-30 18:11 41.88661 141.27523 26584 ft 420 kts 15°
2026-04-30 18:12 41.96687 141.31940 25337 ft 418 kts 30°
2026-04-30 18:13 42.00982 141.37193 24617 ft 415 kts 40°
2026-04-30 18:13 42.06497 141.44242 23637 ft 407 kts 41°
2026-04-30 18:14 42.11241 141.50341 22709 ft 399 kts 41°
2026-04-30 18:15 42.17660 141.57106 21621 ft 385 kts 34°
2026-04-30 18:15 42.24006 141.63499 20580 ft 374 kts 35°
2026-04-30 18:16 42.28129 141.67688 19897 ft 368 kts 35°
2026-04-30 18:16 42.32187 141.71823 19214 ft 362 kts 35°
2026-04-30 18:17 42.34193 141.73868 18877 ft 360 kts 35°
2026-04-30 18:17 42.36151 141.75867 18546 ft 358 kts 36°
2026-04-30 18:17 42.40125 141.79927 17815 ft 352 kts 36°
2026-04-30 18:18 42.42081 141.81911 17442 ft 350 kts 36°
2026-04-30 18:18 42.43992 141.83850 17131 ft 346 kts 36°
2026-04-30 18:18 42.45905 141.85792 16817 ft 342 kts 36°
2026-04-30 18:18 42.47799 141.87718 16502 ft 339 kts 36°
2026-04-30 18:19 42.49677 141.89629 16177 ft 336 kts 36°
2026-04-30 18:19 42.51535 141.91521 15857 ft 333 kts 36°
2026-04-30 18:19 42.53385 141.93389 15520 ft 330 kts 33°
2026-04-30 18:19 42.55462 141.94646 15148 ft 326 kts 10°
2026-04-30 18:20 42.57692 141.94805 14844 ft 319 kts 352°
2026-04-30 18:20 42.59881 141.94452 14545 ft 316 kts 350°
2026-04-30 18:20 42.62051 141.94054 14230 ft 314 kts 349°
2026-04-30 18:20 42.64198 141.93626 13918 ft 312 kts 349°
2026-04-30 18:21 42.66335 141.93181 13577 ft 310 kts 349°
2026-04-30 18:21 42.68464 141.92729 13215 ft 309 kts 349°
2026-04-30 18:21 42.70592 141.92272 12873 ft 308 kts 348°
2026-04-30 18:21 42.72695 141.91817 12558 ft 305 kts 349°
2026-04-30 18:22 42.74784 141.91363 12253 ft 303 kts 348°
2026-04-30 18:22 42.78959 141.90453 11422 ft 311 kts 349°
2026-04-30 18:22 42.81107 141.89984 10927 ft 315 kts 349°
2026-04-30 18:23 42.83293 141.89506 10423 ft 320 kts 349°
2026-04-30 18:23 42.85509 141.89021 9880 ft 325 kts 349°
2026-04-30 18:23 42.87759 141.88528 9281 ft 330 kts 349°
2026-04-30 18:23 42.90043 141.88027 8686 ft 334 kts 349°
2026-04-30 18:24 42.94663 141.87014 7513 ft 342 kts 349°
2026-04-30 18:24 42.97015 141.86498 6990 ft 338 kts 349°
2026-04-30 18:24 42.99280 141.86000 6593 ft 324 kts 349°
2026-04-30 18:25 43.01450 141.85523 6264 ft 309 kts 349°
2026-04-30 18:25 43.05438 141.84384 5655 ft 277 kts 329°
2026-04-30 18:25 43.06830 141.82719 5312 ft 260 kts 301°
2026-04-30 18:26 43.07256 141.78068 4157 ft 253 kts 249°
2026-04-30 18:26 43.06379 141.75999 3580 ft 252 kts 232°
2026-04-30 18:26 43.05308 141.74092 3002 ft 253 kts 231°
2026-04-30 18:27 43.03136 141.70338 2120 ft 243 kts 228°
2026-04-30 18:27 43.02120 141.68610 2083 ft 223 kts 227°
2026-04-30 18:28 43.00128 141.65773 1994 ft 199 kts 200°
2026-04-30 18:28 42.98789 141.65503 1983 ft 191 kts 176°
2026-04-30 18:28 42.96284 141.65783 1983 ft 176 kts 175°
2026-04-30 18:29 42.95061 141.65943 2004 ft 177 kts 175°
2026-04-30 18:29 42.91411 141.66574 2059 ft 173 kts 173°
2026-04-30 18:30 42.89468 141.66931 2061 ft 167 kts 173°
2026-04-30 18:30 42.86922 141.67384 1727 ft 136 kts 173°
2026-04-30 18:31 42.86022 141.67543 1535 ft 128 kts 173°
2026-04-30 18:31 42.84267 141.67853 1214 ft 127 kts 173°
2026-04-30 18:32 42.82490 141.68167 836 ft 130 kts 173°
2026-04-30 18:32 42.81603 141.68324 676 ft 131 kts 173°
2026-04-30 18:32 42.79780 141.68617 284 ft 131 kts 174°
2026-04-30 18:33 42.78889 141.68801 139 ft 131 kts 172°
2026-04-30 18:33 42.77376 141.69066 84 ft 74 kts 173°
2026-04-30 18:33 42.77093 141.69097 86 ft 20 kts 210°
2026-04-30 18:34 42.77073 141.68939 83 ft 17 kts 306°
2026-04-30 18:34 42.77296 141.68856 85 ft 18 kts 352°
2026-04-30 18:34 42.77427 141.68833 85 ft 20 kts 352°
2026-04-30 18:35 42.77572 141.68807 84 ft 22 kts 353°
2026-04-30 18:35 42.77729 141.68780 83 ft 24 kts 353°
2026-04-30 18:35 42.77889 141.68751 84 ft 19 kts 353°
2026-04-30 18:36 42.78003 141.68672 85 ft 3 kts 308°
2026-04-30 18:36 42.78023 141.68622 83 ft 10 kts 293°
2026-04-30 18:36 42.78150 141.68520 83 ft 12 kts 352°
2026-04-30 18:37 42.78239 141.68503 83 ft 14 kts 353°
2026-04-30 18:37 42.78344 141.68485 84 ft 17 kts 353°
2026-04-30 18:37 42.78453 141.68426 82 ft 18 kts 309°
2026-04-30 18:37 42.78505 141.68342 82 ft 0 kts 313°
2026-04-30 18:38 42.78508 141.68338 85 ft 0 kts 311°
2026-04-30 18:39 42.78511 141.68333 85 ft 2 kts 308°
2026-04-30 18:39 42.78529 141.68300 84 ft 7 kts 306°
2026-04-30 18:39 42.78561 141.68238 84 ft 2 kts 304°
2026-04-30 18:39 42.78574 141.68214 82 ft 0 kts 304°